星链-4136 (STARLINK-4136 )

导读 | 星芒AI

STARLINK-4136 是 SpaceX Starlink 卫星互联网项目中的一颗低轨卫星,属于“星链”计划的组成部分。该卫星由 SpaceX 研制并发射,旨在为全球用户提供高速互联网服务。它运行在近地轨道,与其他 Starlink 卫星协同工作,提升网络覆盖与连接质量。STARLINK-4136 的部署有助于扩大 Starlink 在偏远地区的网络接入能力,支持通信、科研及商业应用。该卫星采用先进通信技术,具备自动避撞功能,以保障太空安全。

基本信息
目录编号:
53260
目录名称:
STARLINK-4136
国际标识:
2022-086U
轨道中心:
EARTH
卫星名称:
星链-4136
卫星全名:
星链-4136 (STARLINK-4136 )
卫星状态:
已陨落 最后检测时间 2025-06-04
发射日期:
2022-07-24 UTC
国别 :
美国 (US)
星等 :
--
轨道信息
数据来源 国际轨道数据
星历时间: 2025-06-04T06:54:53+0800
轨道信息已过期200天
半长轴: 6524.311km
偏心率: 0.0005646
轨道倾角: 53.205°
近地点辐角 258.360°
升交点赤经 340.782°
平近点角 252.677°
近地点: 142.492km
远地点: 149.86km
周期: 87.410分钟
每日圈数: 16.474068
详细信息
固有亮度:
5
最大亮度:
2.5
卫星平台:
Starlink v1.5
覆盖范围:
全球
运营商:
太空探索技术公司
运营商所在国:
美国
制造商(研发单位):
太空探索技术公司
制造商所在国:
美国
使用方式:
暂无
卫星简介
星链(Starlink)计划是由太空探索技术公司(SpaceX)提出的一个巨型低轨卫星互联网星座项目,计划在2019年至2024年间在太空搭建由约1.2万颗卫星组成的“星链”网络,其中1584颗将部署在地球上空550千米处的近地轨道,并从2020年开始工作。该卫星仍在工作。